Regional Weather Roundup
Issued by NWS State College, PA

Home | Current Version | Previous Version | Graphics & Text | Print | Product List | Glossary Off
Versions: 1 2 3 4 5 6 7 8 9 10 11 12 13 14 15 16 17 18 19 20 21 22 23 24 25 26 27 28 29 30 31 32 33 34 35 36 37 38 39 40 41 42 43 44 45 46 47 48 49 50

000
ASUS41 KCTP 291603
RWRCTP

REGIONAL WEATHER ROUNDUP
NATIONAL WEATHER SERVICE STATE COLLEGE PA
1200 PM EDT THU SEP 29 2016

Note: "fair" indicates few or no clouds below 12,000 feet with no
significant weather and/or obstructions to visibility.

* = STATION THAT DOES NOT REPORT PRECIPITATION /E.G. RAIN...SNOW...ETC/
    THUNDER OR FOG.

PAZ002>004-007>009-013>016-020>023-029>032-291700-
WESTERN PENNSYLVANIA

CITY           SKY/WX    TMP DP  RH WIND       PRES   REMARKS
ERIE           LGT RAIN  61  59  93 E10       30.20R FOG
MEADVILLE      CLOUDY    59  55  87 E12       30.17S
FRANKLIN*        N/A     57  52  82 E14G21    30.19S
NEW CASTLE     CLOUDY    61  57  87 E8G20     30.15R
BEAVER COUNTY  RAIN      59  57  94 E3        30.13R
BUTLER*        CLOUDY    59  55  88 E10       30.16S
PITTSBURGH INT CLOUDY    59  59 100 E12       30.11S
PITTSBURGH     CLOUDY    62  56  80 E9        30.10S
INDIANA*       CLOUDY    63  57  82 E14G22    30.18S
LATROBE        PTSUNNY   64  59  82 NE14      30.13S
WASHINGTON CO* CLOUDY    63  55  77 NE10      30.10R
$$

PAZ004>006-010>012-017>019-024>028-033>037-041-042-045-046-049>053-291700-
CENTRAL PENNSYLVANIA

CITY           SKY/WX    TMP DP  RH WIND       PRES   REMARKS
BRADFORD       RAIN      56  56 100 E12       30.24S FOG
DUBOIS         CLOUDY    57  53  86 E10G20    30.20S
CLEARFIELD     LGT RAIN  57  57 100 E10       30.23S FOG
JOHNSTOWN      LGT RAIN  57  56  96 E12G22    30.16S FOG
ALTOONA        LGT RAIN  59  58  96 E12G20    30.20S
STATE COLLEGE  DRIZZLE   57  55  94 E6        30.25R
WILLIAMSPORT   HVY RAIN  59  58  96 E8        30.28R FOG
SELINSGROVE    CLOUDY    60  58  92 NE6       30.28R
FT INDIANTOWN  NOT AVBL
CAPITAL CITY   LGT RAIN  62  58  86 E18G25    30.24R
HARRISBURG     CLOUDY    61  60  97 E12G22    30.24R
YORK           CLOUDY    63  63 100 E12       30.22R
$$

PAZ038>040-043-044-047-048-054-055-060>062-067>071-291700-
EASTERN PENNSYLVANIA

CITY           SKY/WX    TMP DP  RH WIND       PRES   REMARKS
SCRANTON       CLOUDY    58  53  84 NE8       30.33R
MOUNT POCONO   CLOUDY    51  49  92 E16G24    30.35R
ALLENTOWN      CLOUDY    60  53  77 E16G22    30.33R
QUAKERTOWN*    CLOUDY    57  55  94 E8        30.33S
READING        CLOUDY    60  55  83 E15G23    30.28S
LANCASTER      LGT RAIN  62  61  96 E16G28    30.24S
COATESVILLE    LGT RAIN  61  61 100 E12G25    30.28R
POTTSTOWN      CLOUDY    58  58 100 E8G17     30.31S FOG
BLUE BELL      CLOUDY    59  59 100 E10G18    30.29F
DOYLESTOWN     LGT RAIN  59  58  96 VRB5      30.32R FOG
WILLOW GROVE   NOT AVBL
NORTH PHILA    LGT RAIN  64  62  93 E17       30.32S FOG
PHILADELPHIA   CLOUDY    65  61  87 E20G33    30.27F
$$




USA.gov is the U.S. government's official web portal to all federal, state and local government web resources and services.